• In Lithuania
  • List of Countries
  • For 7 days
  • Water Temperature
  • Satellite Maps
  • Weather Map
  • Weather Widgets
  • user-avatar
    Login

    Hourly Weather Gori

    Today, 18 January, Thursday

    Time Temperature Precipitation Wind Pressure Humidity
    00:00 0°C° 0 mm 1 mps 696 mmHg 70%
    01:00 0°C° 0 mm 1 mps 696 mmHg 70%
    02:00 -2°C° 0 mm 2 mps 696 mmHg 71%
    03:00 +1°C° 0 mm 1 mps 695 mmHg 72%
    04:00 +1°C° 0.1 mm 1 mps 695 mmHg 73%
    05:00 +1°C° 0.1 mm 1 mps 695 mmHg 74%
    06:00 -2°C° 0.1 mm 2 mps 695 mmHg 75%
    07:00 -1°C° 0.1 mm 2 mps 694 mmHg 75%
    08:00 -1°C° 0.1 mm 2 mps 694 mmHg 75%
    09:00 +1°C° 0.1 mm 2 mps 694 mmHg 74%
    10:00 +1°C° 0 mm 3 mps 694 mmHg 72%
    11:00 +1°C° 0 mm 3 mps 693 mmHg 70%
    12:00 +2°C° 0 mm 3 mps 692 mmHg 68%
    13:00 +2°C° 0.1 mm 3 mps 692 mmHg 69%
    14:00 +2°C° 0.1 mm 3 mps 692 mmHg 70%
    15:00 +2°C° 0.1 mm 3 mps 691 mmHg 71%
    16:00 +1°C° 0.3 mm 3 mps 691 mmHg 75%
    17:00 +1°C° 0.3 mm 3 mps 691 mmHg 79%
    18:00 0°C° 0.3 mm 3 mps 691 mmHg 82%
    19:00 0°C° 0.4 mm 3 mps 691 mmHg 83%
    20:00 0°C° 0.4 mm 3 mps 691 mmHg 84%
    21:00 0°C° 0.4 mm 3 mps 690 mmHg 85%
    22:00 0°C° 0.4 mm 3 mps 690 mmHg 86%
    23:00 0°C° 0.4 mm 3 mps 690 mmHg 86%

    Tomorrow, 19 January, Friday

    Time Temperature Precipitation Wind Pressure Humidity
    00:00 0°C° 0.4 mm 3 mps 690 mmHg 86%
    01:00 0°C° 0.5 mm 3 mps 690 mmHg 87%
    02:00 0°C° 0.5 mm 3 mps 690 mmHg 87%
    03:00 +1°C° 0.5 mm 2 mps 691 mmHg 88%
    04:00 +1°C° 0.2 mm 2 mps 691 mmHg 86%
    05:00 +1°C° 0.2 mm 2 mps 691 mmHg 85%
    06:00 +1°C° 0.2 mm 2 mps 692 mmHg 84%
    07:00 +2°C° 0 mm 2 mps 692 mmHg 81%
    08:00 +3°C° 0 mm 2 mps 692 mmHg 79%
    09:00 +3°C° 0 mm 2 mps 693 mmHg 77%
    10:00 +4°C° 0 mm 2 mps 693 mmHg 75%
    11:00 +6°C° 0 mm 2 mps 693 mmHg 73%
    12:00 +7°C° 0 mm 2 mps 693 mmHg 71%
    13:00 +8°C° 0 mm 1 mps 693 mmHg 71%
    14:00 +8°C° 0 mm 1 mps 693 mmHg 72%
    15:00 +9°C° 0 mm 1 mps 694 mmHg 72%
    16:00 +7°C° 0 mm 1 mps 694 mmHg 74%
    17:00 +6°C° 0 mm 1 mps 695 mmHg 75%
    18:00 +5°C° 0 mm 1 mps 696 mmHg 77%
    19:00 +3°C° 0 mm 2 mps 696 mmHg 79%
    20:00 +3°C° 0 mm 2 mps 696 mmHg 80%
    21:00 +3°C° 0 mm 2 mps 697 mmHg 81%
    22:00 +3°C° 0 mm 2 mps 697 mmHg 83%
    23:00 +3°C° 0 mm 2 mps 697 mmHg 84%

    Day after tomorrow, 20 January, Saturday

    Time Temperature Precipitation Wind Pressure Humidity
    00:00 +2°C° 0 mm 3 mps 698 mmHg 85%
    01:00 +2°C° 0 mm 3 mps 698 mmHg 85%
    02:00 +2°C° 0 mm 3 mps 699 mmHg 85%
    03:00 +1°C° 0 mm 3 mps 699 mmHg 86%
    04:00 +1°C° 0 mm 3 mps 699 mmHg 85%
    05:00 +1°C° 0 mm 3 mps 699 mmHg 85%
    06:00 +1°C° 0 mm 3 mps 700 mmHg 84%
    07:00 +1°C° 0 mm 3 mps 700 mmHg 83%
    08:00 +2°C° 0 mm 3 mps 700 mmHg 82%
    09:00 +2°C° 0 mm 3 mps 701 mmHg 81%
    10:00 +3°C° 0 mm 3 mps 701 mmHg 78%
    11:00 +4°C° 0 mm 3 mps 701 mmHg 75%
    12:00 +5°C° 0 mm 3 mps 700 mmHg 73%
    13:00 +6°C° 0 mm 2 mps 700 mmHg 73%
    14:00 +6°C° 0 mm 2 mps 700 mmHg 72%
    15:00 +7°C° 0 mm 2 mps 700 mmHg 72%
    16:00 +7°C° 0 mm 1 mps 700 mmHg 74%
    17:00 +5°C° 0 mm 1 mps 701 mmHg 76%
    18:00 +4°C° 0 mm 1 mps 701 mmHg 78%
    19:00 +4°C° 0 mm 1 mps 701 mmHg 77%
    20:00 +3°C° 0 mm 1 mps 701 mmHg 75%
    21:00 +2°C° 0 mm 2 mps 702 mmHg 73%
    22:00 +2°C° 0 mm 2 mps 702 mmHg 72%
    23:00 +1°C° 0 mm 2 mps 702 mmHg 71%

    21 January, Sunday

    Time Temperature Precipitation Wind Pressure Humidity
    00:00 +1°C° 0 mm 2 mps 702 mmHg 69%
    01:00 +1°C° 0 mm 2 mps 702 mmHg 69%
    02:00 +1°C° 0 mm 2 mps 702 mmHg 70%
    03:00 +1°C° 0 mm 2 mps 702 mmHg 70%
    04:00 +1°C° 0 mm 2 mps 702 mmHg 68%
    05:00 +1°C° 0 mm 2 mps 702 mmHg 67%
    06:00 +1°C° 0 mm 2 mps 702 mmHg 65%
    07:00 +2°C° 0 mm 1 mps 702 mmHg 62%
    08:00 +3°C° 0 mm 1 mps 702 mmHg 60%
    09:00 +4°C° 0 mm 1 mps 702 mmHg 57%
    10:00 +6°C° 0 mm 1 mps 701 mmHg 55%
    11:00 +6°C° 0 mm 2 mps 701 mmHg 54%
    12:00 +8°C° 0 mm 2 mps 701 mmHg 52%
    13:00 +8°C° 0 mm 2 mps 700 mmHg 53%
    14:00 +8°C° 0 mm 2 mps 700 mmHg 54%
    15:00 +8°C° 0 mm 2 mps 700 mmHg 55%
    16:00 +7°C° 0 mm 2 mps 700 mmHg 56%
    17:00 +5°C° 0 mm 2 mps 701 mmHg 57%
    18:00 +4°C° 0 mm 2 mps 701 mmHg 58%
    19:00 +3°C° 0 mm 2 mps 701 mmHg 56%
    20:00 +3°C° 0 mm 2 mps 701 mmHg 55%
    21:00 +3°C° 0 mm 2 mps 701 mmHg 53%
    22:00 +3°C° 0 mm 2 mps 701 mmHg 52%
    23:00 +2°C° 0 mm 2 mps 700 mmHg 52%

    22 January, Monday

    Time Temperature Precipitation Wind Pressure Humidity
    00:00 +2°C° 0 mm 2 mps 700 mmHg 51%
    01:00 +2°C° 0 mm 2 mps 700 mmHg 50%
    02:00 +2°C° 0 mm 2 mps 700 mmHg 50%
    03:00 +2°C° 0 mm 2 mps 699 mmHg 50%
    04:00 +2°C° 0 mm 2 mps 699 mmHg 50%
    05:00 +2°C° 0 mm 2 mps 698 mmHg 50%
    06:00 +2°C° 0 mm 2 mps 698 mmHg 50%
    07:00 +3°C° 0 mm 2 mps 698 mmHg 50%
    08:00 +4°C° 0 mm 2 mps 698 mmHg 49%
    09:00 +4°C° 0 mm 2 mps 697 mmHg 49%
    10:00 +6°C° 0 mm 2 mps 697 mmHg 48%
    11:00 +7°C° 0 mm 3 mps 696 mmHg 47%
    12:00 +8°C° 0 mm 3 mps 696 mmHg 45%
    13:00 +8°C° 0 mm 3 mps 696 mmHg 46%
    14:00 +8°C° 0 mm 3 mps 695 mmHg 46%
    15:00 +8°C° 0 mm 3 mps 695 mmHg 46%
    16:00 +7°C° 0 mm 3 mps 695 mmHg 48%
    17:00 +5°C° 0 mm 2 mps 695 mmHg 50%
    18:00 +3°C° 0 mm 2 mps 695 mmHg 52%
    19:00 +3°C° 0 mm 2 mps 695 mmHg 53%
    20:00 +3°C° 0 mm 2 mps 696 mmHg 53%
    21:00 +2°C° 0 mm 2 mps 696 mmHg 54%
    22:00 +2°C° 0 mm 2 mps 696 mmHg 54%
    23:00 +2°C° 0 mm 2 mps 696 mmHg 54%

    23 January, Tuesday

    Time Temperature Precipitation Wind Pressure Humidity
    00:00 +2°C° 0 mm 2 mps 695 mmHg 54%
    01:00 +2°C° 0 mm 2 mps 695 mmHg 53%
    02:00 +2°C° 0 mm 2 mps 695 mmHg 53%
    03:00 +1°C° 0 mm 2 mps 695 mmHg 53%
    04:00 +2°C° 0 mm 2 mps 695 mmHg 52%
    05:00 +2°C° 0 mm 2 mps 695 mmHg 52%
    06:00 +3°C° 0 mm 1 mps 695 mmHg 52%
    07:00 +3°C° 0 mm 1 mps 695 mmHg 51%
    08:00 +4°C° 0 mm 1 mps 696 mmHg 51%
    09:00 +5°C° 0 mm 1 mps 696 mmHg 50%
    10:00 +6°C° 0 mm 1 mps 696 mmHg 48%
    11:00 +7°C° 0 mm 1 mps 695 mmHg 46%
    12:00 +8°C° 0 mm 1 mps 695 mmHg 44%
    13:00 +8°C° 0 mm 1 mps 695 mmHg 46%
    14:00 +7°C° 0 mm 2 mps 695 mmHg 48%
    15:00 +7°C° 0 mm 2 mps 695 mmHg 50%
    16:00 +6°C° 0 mm 2 mps 696 mmHg 55%
    17:00 +4°C° 0 mm 2 mps 696 mmHg 60%
    18:00 +3°C° 0 mm 2 mps 696 mmHg 65%
    19:00 +2°C° 0 mm 2 mps 696 mmHg 67%
    20:00 +2°C° 0 mm 2 mps 697 mmHg 69%
    21:00 +2°C° 0 mm 2 mps 697 mmHg 71%
    22:00 +1°C° 0 mm 2 mps 697 mmHg 71%
    23:00 +1°C° 0 mm 2 mps 697 mmHg 71%
    Show more